Location: ?????
(55.8833°N, 37.6500°E)
Time: 23:09:23
(UTC+00:00)

STARLINK-32 - Pass Details

Date: 27 February 2020
Orbit: 529 x 530 km, 53.0° (Epoch: 05 April)

Event Time Altitude Azimuth Distance (km) Brightness Sun altitude
Rises 16:00:08 0° 256° (WSW) 2,668 9.0 -9.4°
Reaches altitude 10° 16:02:23 10° 252° (WSW) 1,779 7.6 -9.8°
Maximum altitude 16:06:20 56° 174° (S) 634 3.9 -10.3°
Enters shadow 16:09:29 15° 99° (E) 1,470 5.1 -10.7°
